AirNav   Air Wisconsin Up To $57,000 Bonus
 
 1123 users online  

5Y3 Gutzmer's Twin Oaks Airport
Whitewater, Wisconsin, USA

GOING TO WHITEWATER?


FAA INFORMATION EFFECTIVE 26 MARCH 2020

Location

FAA Identifier: 5Y3
Lat/Long: 42-51-12.8000N 088-45-35.3000W
42-51.213333N 088-45.588333W
42.8535556,-88.7598056
(estimated)
Elevation: 821 ft. / 250 m (estimated)
Variation: 00W (1985)
From city: 1 mile NW of WHITEWATER, WI
Time zone: UTC -5 (UTC -6 during Standard Time)
Zip code: 53190

Airport Operations

Airport use: Open to the public
Control tower: no
ARTCC: CHICAGO CENTER
FSS: GREEN BAY FLIGHT SERVICE STATION
NOTAMs facility: GRB (NOTAM-D service available)
Attendance: APR-NOV 0800-SS
Pattern altitude: 1621 ft. MSL
Wind indicator: yes
Segmented circle: no
Lights: SS-SR

Airport Communications

CTAF: 122.9
WX AWOS-3PT at 57C (17 nm E): 118.125 (262-642-1845)
WX AWOS-3 at JVL (19 nm SW): PHONE 608-758-1723
WX AWOS-3 at RYV (19 nm N): 119.975 (920-261-0734)

Nearby radio navigation aids

VOR radial/distance  VOR name  Freq  Var
JVLr038/23.4JANESVILLE VOR/DME114.3003E
BAEr231/26.2BADGER VOR/DME116.4002E
MSNr121/30.9MADISON VORTAC108.6003E

 
NDB name  Hdg/Dist  Freq  Var  ID
LAKE LAWN324/11.840402WLVV .-.. ...- ...-
ROCK RIVER186/19.337101WRYV .-. -.-- ...-
JUNEAU185/34.634401WUNU ..- -. ..-

Airport Services

Parking: tiedowns
Airframe service: NONE
Powerplant service: NONE
Bottled oxygen: NONE
Bulk oxygen: NONE

Runway Information

Runway 18/36

Dimensions: 2523 x 140 ft. / 769 x 43 m
Surface: turf, in good condition
Runway edge lights: non-standard
NSTD LIRL; LGTS FLUSH MOUNTED
Runway edge markings: 18/36 THLDS MKD WITH YELLOW CONES.
RUNWAY 18  RUNWAY 36
Latitude: 42-51.420937N42-51.005545N
Longitude: 088-45.589023W088-45.588268W
Elevation: 800.6 ft.821.0 ft.
Traffic pattern: leftleft
Runway heading: 180 magnetic, 180 true000 magnetic, 360 true
Runway end identifier lights: nono
Touchdown point: yes, no lightsyes, no lights
Obstructions: 40 ft. trees, 685 ft. from runway, 125 ft. left of centerline, 17:1 slope to clear56 ft. tree, 845 ft. from runway, 130 ft. right of centerline, 15:1 slope to clear

Airport Ownership and Management from official FAA records

Ownership: Privately-owned
Owner: COLDSPRING AIRPORT LLC
N1190 COUNTY ROAD N
WHITEWATER, WI 53190
Phone (920) 723-1556
OTHER MAILING ADDRESS: N1190 COUNTY ROAD N.
Manager: MARCUS TINCHER
532 W MAIN ST
WHITEWATER, WI 53190
Phone (920) 723-1556
EMAIL ADDRESS: MARCUSTINCHER@TINCHERREALTY.COM (ALL LOWER CASE)

Airport Operational Statistics

Aircraft based on the field: 4
Single engine airplanes: 2
Ultralights: 2
    
Aircraft operations: avg 57/week *
73% local general aviation
27% transient general aviation
* for 12-month period ending 28 August 2019

Additional Remarks

RY 18/36 NOT PLOWED WINTERS. CLSD TO WHEELED ACFT WHEN RY SNOW COVERED.
EXTENSIVE ULTRALIGHT & HANG GLDR OPNS ON & INVOF.
FOR CD CTC CHICAGO ARTCC AT 630-906-8921.

Instrument Procedures

There are no published instrument procedures at 5Y3.

Some nearby airports with instrument procedures:

61C - Fort Atkinson Municipal Airport (7 nm N)
57C - East Troy Municipal Airport (17 nm E)
KJVL - Southern Wisconsin Regional Airport (19 nm SW)
KRYV - Watertown Municipal Airport (19 nm N)
C02 - Grand Geneva Resort Airport (22 nm SE)
 
Loc | Ops | Rwys | IFR | FBO | Links
Com | Nav | Svcs | Stats | Notes
Area around 5Y3 (Gutzmer's Twin Oaks Airport)
 
Road maps at: MapQuest Bing Google
 
Aerial photo
WARNING: Photo may not be current or correct
Aerial photo of 5Y3 (Gutzmer's Twin Oaks Airport)
Do you have a better or more recent aerial photo of Gutzmer's Twin Oaks Airport that you would like to share? If so, please send us your photo.

 
Sectional chart

 
Airport distance calculator
Flying to Gutzmer's Twin Oaks Airport? Find the distance to fly.

From to 5Y3

Sunrise and sunset
Times for 06-Apr-2020
 Local
(UTC-5)
 Zulu
(UTC)
Morning civil twilight05:5910:59
Sunrise06:2811:28
Sunset19:2700:27
Evening civil twilight19:5600:56

Current date and time
Zulu (UTC)  06-Apr-2020 21:16:37
Local (UTC-5)  06-Apr-2020 16:16:37
 
METAR
K57C 
17nm E 
062055Z AUTO 20005KT 10SM OVC036 14/04 A2995 RMK AO2 T01360037
KJVL 
18nm SW 
061945Z 19010KT 10SM OVC030 13/05 A2998
KRYV 
19nm N 
062055Z AUTO 18010KT 10SM BKN038 OVC050 14/06 A2995 RMK AO2 T01360056
KBUU 
23nm SE 
062055Z AUTO 20004KT 10SM OVC037 15/04 A2996 RMK AO2 T01480043
KUES 
29nm E 
062045Z 21008KT 10SM OVC045 13/01 A2997
KMSN 
31nm NW 
062053Z 18012KT 10SM OVC027 12/06 A2994 RMK AO2 SLP144 T01170056 58020 $
KUNU 
34nm N 
062055Z AUTO 19007KT 10SM OVC046 14/04 A2995 RMK AO2 T01350039
TAF
KUES 
29nm E 
061742Z 0618/0718 18006KT P6SM OVC060 FM062200 17006KT P6SM OVC030 FM070000 14004KT P6SM VCSH OVC025 FM070400 11003KT P6SM VCSH OVC005 FM071500 18004KT P6SM BKN005 FM071700 21007KT P6SM BKN020
KMSN 
31nm NW 
061742Z 0618/0718 18009KT P6SM SCT017 OVC050 FM062000 18007KT P6SM OVC027 FM062300 16005KT P6SM VCSH OVC019 FM070400 12004KT P6SM VCSH OVC004 FM071200 15003KT 2SM BR BKN003 FM071600 19005KT P6SM BKN015
NOTAMs
Click for the latest NOTAMs
NOTAMs are issued by the DoD/FAA and will open in a separate window not controlled by AirNav.

 

 
 

Would you like to see your business listed on this page?

 If your business provides an interesting product or service to pilots, flight crews, aircraft, or users of the Gutzmer's Twin Oaks Airport, you should consider listing it here.  To start the listing process, click on the button below
 
Add a business
 

Other Pages about Gutzmer's Twin Oaks Airport

Page from the Wisconsin airport directory (PDF)
 
Update a link
 
Copyright © AirNav, LLC. All rights reserved. Privacy Policy  Contact